Year,Month,Day,Hour,Minute,Value (Times are PST for temperature in C)
2017,11,28,13,07,-24.90
2017,11,28,13,08,-24.90
2017,11,28,13,09,-24.90
2017,11,28,13,10,-24.90
2017,11,28,13,11,-24.90
2017,11,28,13,12,-24.60
2017,11,28,13,13,-24.60
2017,11,28,13,14,-24.60
2017,11,28,13,15,-24.60
2017,11,28,13,16,-24.60
2017,11,28,13,17,-24.60
2017,11,28,13,18,-24.60
2017,11,28,13,19,-24.60
2017,11,28,13,20,-24.60
2017,11,28,13,21,-24.60
2017,11,28,13,22,-24.60
2017,11,28,13,23,-24.60
2017,11,28,13,24,-24.60
2017,11,28,13,25,-24.60
2017,11,28,13,26,-24.60
2017,11,28,13,27,-24.60
2017,11,28,13,28,-24.60
2017,11,28,13,29,-24.60
2017,11,28,13,30,-24.60
2017,11,28,13,31,-24.60
2017,11,28,13,32,-24.50
2017,11,28,13,33,-24.30
2017,11,28,13,34,-24.20
2017,11,28,13,35,-24.20
2017,11,28,13,36,-24.20
2017,11,28,13,37,-24.20
2017,11,28,13,38,-24.50
2017,11,28,13,39,-24.60
2017,11,28,13,40,-24.60
2017,11,28,13,41,-24.60
2017,11,28,13,42,-24.60
2017,11,28,13,43,-24.60
2017,11,28,13,44,-24.60
2017,11,28,13,45,-24.70
2017,11,28,13,46,-24.90
2017,11,28,13,47,-24.90
2017,11,28,13,48,-24.90
2017,11,28,13,49,-24.90
2017,11,28,13,50,-24.90
2017,11,28,14,45,-24.90
2017,11,28,14,46,-24.90
2017,11,28,14,47,-24.90
2017,11,28,14,48,-24.90
2017,11,28,14,49,-24.90
2017,11,28,14,50,-24.90
2017,11,28,14,51,-24.90
2017,11,28,18,48,-24.90
2017,11,28,18,49,-24.90
2017,11,28,18,50,-24.70
2017,11,28,18,51,-23.90
2017,11,28,18,52,-23.60
2017,11,28,18,53,-23.30
2017,11,28,18,54,-23.20
2017,11,28,18,55,-22.90
2017,11,28,18,56,-22.50
2017,11,28,18,57,-22.10
2017,11,28,18,58,-21.60
2017,11,28,18,59,-21.20
2017,11,28,19,00,-21.00
2017,11,28,19,01,-20.70
2017,11,28,19,02,-20.50
2017,11,28,19,03,-20.20
2017,11,28,19,04,-20.10
2017,11,28,19,05,-19.90
2017,11,28,19,06,-19.70
2017,11,28,19,07,-19.60
2017,11,28,19,08,-19.60
2017,11,28,19,09,-19.50
2017,11,28,19,10,-19.30
2017,11,28,19,11,-19.30
2017,11,28,19,12,-19.30
2017,11,28,19,13,-19.30
2017,11,28,19,14,-19.30
2017,11,28,19,15,-19.30
2017,11,28,19,16,-19.30
2017,11,28,19,17,-19.10
2017,11,28,19,18,-19.00
2017,11,28,19,19,-19.00
2017,11,28,19,20,-19.00
2017,11,28,19,21,-19.00
2017,11,28,19,22,-19.00
2017,11,28,19,23,-18.80
2017,11,28,19,24,-18.70
2017,11,28,19,25,-18.70
2017,11,28,19,26,-18.70
2017,11,28,19,27,-18.70
2017,11,28,19,28,-18.70
2017,11,28,19,29,-18.70
2017,11,28,19,30,-18.70
2017,11,28,19,31,-18.70
2017,11,28,19,32,-18.70
2017,11,28,19,33,-18.70
2017,11,28,19,34,-18.70
2017,11,28,19,35,-18.70
2017,11,28,19,36,-18.70
2017,11,28,19,37,-18.60
2017,11,28,19,38,-18.40
2017,11,28,19,39,-18.40
2017,11,28,19,40,-18.40
2017,11,28,19,41,-18.40
2017,11,28,19,42,-18.40
2017,11,28,19,43,-18.40
2017,11,28,19,44,-18.40
2017,11,28,19,45,-18.40
2017,11,28,19,46,-18.40
2017,11,28,19,47,-18.40
2017,11,28,19,48,-18.40
2017,11,28,19,49,-18.40
2017,11,28,19,50,-18.40
2017,11,28,19,51,-18.40
2017,11,28,19,52,-18.10
2017,11,28,19,53,-18.10
2017,11,28,19,54,-18.10
2017,11,28,19,55,-18.10
2017,11,28,19,56,-18.10
2017,11,28,19,57,-18.10
2017,11,28,19,58,-18.10
2017,11,28,19,59,-18.10
2017,11,28,20,00,-18.10
2017,11,28,20,01,-18.10
2017,11,28,20,02,-18.10
2017,11,28,20,03,-18.10
2017,11,28,20,04,-18.10
2017,11,28,20,05,-18.10
2017,11,28,20,06,-18.10
2017,11,28,20,07,-18.10
2017,11,28,20,08,-18.10
2017,11,28,20,09,-18.10
2017,11,28,20,10,-18.10
2017,11,28,20,11,-18.10
2017,11,28,20,12,-18.10
2017,11,28,20,13,-18.10
2017,11,28,20,14,-18.10
2017,11,28,20,15,-18.00
2017,11,28,20,16,-18.00
2017,11,28,20,17,-17.90
2017,11,28,20,18,-17.90
2017,11,28,20,19,-17.80
2017,11,28,20,20,-17.80
2017,11,28,20,21,-17.80
2017,11,28,20,22,-17.80
2017,11,28,20,23,-17.80
2017,11,28,20,24,-17.80
2017,11,28,20,25,-17.80
2017,11,28,20,26,-17.80
2017,11,28,20,27,-17.80
2017,11,28,20,28,-17.80
2017,11,28,20,29,-17.80
2017,11,28,20,30,-17.80
2017,11,28,20,31,-17.70
2017,11,28,20,32,-17.50
2017,11,28,20,33,-17.50
2017,11,28,20,34,-17.50
2017,11,28,20,35,-17.50
2017,11,28,20,36,-17.50
2017,11,28,20,37,-17.50
2017,11,28,20,38,-17.50
2017,11,28,20,39,-17.50
2017,11,28,20,40,-17.50
2017,11,28,20,41,-17.50
2017,11,28,20,42,-17.50
2017,11,28,20,43,-17.50
2017,11,28,20,44,-17.50
2017,11,28,20,45,-17.50
2017,11,28,20,46,-17.50
2017,11,28,20,47,-17.50
2017,11,28,20,48,-17.50
2017,11,28,20,49,-17.50
2017,11,28,20,50,-17.50
2017,11,28,20,51,-17.50
2017,11,28,20,52,-17.50
2017,11,28,20,53,-17.50
2017,11,28,20,54,-17.50
2017,11,28,20,55,-17.50
2017,11,28,20,56,-17.50
2017,11,28,20,57,-17.50
2017,11,28,20,58,-17.50
2017,11,28,20,59,-17.50
2017,11,28,21,00,-17.40
2017,11,28,21,01,-17.30
2017,11,28,21,02,-17.20
2017,11,28,21,03,-17.30
2017,11,28,21,04,-17.20
2017,11,28,21,05,-17.20
2017,11,28,21,06,-17.20
2017,11,28,21,07,-17.20
2017,11,28,21,08,-17.20
2017,11,28,21,09,-17.20
2017,11,28,21,10,-17.20
2017,11,28,21,11,-17.20
2017,11,28,21,12,-17.20
2017,11,28,21,13,-17.20
2017,11,28,21,14,-17.20
2017,11,28,21,15,-17.20
2017,11,28,21,16,-17.20
2017,11,28,21,17,-17.20
2017,11,28,21,18,-17.20
2017,11,28,21,19,-17.20
2017,11,28,21,20,-17.20
2017,11,28,21,21,-17.20
2017,11,28,21,22,-17.20
2017,11,28,21,23,-17.20
2017,11,28,21,24,-17.20
2017,11,28,21,25,-17.20
2017,11,28,21,26,-17.20
2017,11,28,21,27,-17.20
2017,11,28,21,28,-17.20
2017,11,28,21,29,-17.20
2017,11,28,21,30,-17.20
2017,11,28,21,31,-17.10
2017,11,28,21,32,-17.10
2017,11,28,21,33,-17.10
2017,11,28,21,34,-17.00
2017,11,28,21,35,-16.90
2017,11,28,21,36,-16.90
2017,11,28,21,37,-16.90
2017,11,28,21,38,-17.00
2017,11,28,21,39,-16.90
2017,11,28,21,40,-16.90
2017,11,28,21,41,-16.90
2017,11,28,21,42,-16.90
2017,11,28,21,43,-16.90
2017,11,28,21,44,-16.90
2017,11,28,21,45,-16.90
2017,11,28,21,46,-16.90
2017,11,28,21,47,-16.90
2017,11,28,21,48,-16.90
2017,11,28,21,49,-16.90
2017,11,28,21,50,-16.90
2017,11,28,21,51,-16.90
2017,11,28,21,52,-16.90
2017,11,28,21,53,-16.90
2017,11,28,21,54,-16.90
2017,11,28,21,55,-16.90
2017,11,28,21,56,-16.90
2017,11,28,21,57,-16.90
2017,11,28,21,58,-16.90
2017,11,28,21,59,-16.90
2017,11,28,22,00,-16.90
2017,11,28,22,01,-16.90
2017,11,28,22,02,-16.90
2017,11,28,22,03,-16.90
2017,11,28,22,04,-16.90
2017,11,28,22,05,-16.90
2017,11,28,22,06,-16.90
2017,11,28,22,07,-16.80
2017,11,28,22,08,-16.60
2017,11,28,22,09,-16.60
2017,11,28,22,10,-16.60
2017,11,28,22,11,-16.60
2017,11,28,22,12,-16.60
2017,11,28,22,13,-16.60
2017,11,28,22,14,-16.60
2017,11,28,22,15,-16.60
2017,11,28,22,16,-16.60
2017,11,28,22,17,-16.50
2017,11,28,22,18,-16.40
2017,11,28,22,19,-16.40
2017,11,28,22,20,-16.40
2017,11,28,22,21,-16.40
2017,11,28,22,22,-16.40
2017,11,28,22,23,-16.40
2017,11,28,22,24,-16.40
2017,11,28,22,25,-16.30
2017,11,28,22,26,-16.10
2017,11,28,22,27,-16.10
2017,11,28,22,28,-16.10
2017,11,28,22,29,-16.10
2017,11,28,22,30,-16.10
2017,11,28,22,31,-16.00
2017,11,28,22,32,-15.80
2017,11,28,22,33,-15.80
2017,11,28,22,34,-15.80
2017,11,28,22,35,-15.80
2017,11,28,22,36,-15.80
2017,11,28,22,37,-15.80
2017,11,28,22,38,-15.80
2017,11,28,22,39,-15.80
2017,11,28,22,40,-15.80
2017,11,28,22,41,-15.80
2017,11,28,22,42,-15.80
2017,11,28,22,43,-15.70
2017,11,28,22,44,-15.60
2017,11,28,22,45,-15.60
2017,11,28,22,46,-15.60
2017,11,28,22,47,-15.60
2017,11,28,22,48,-15.60
2017,11,28,22,49,-15.60
2017,11,28,22,50,-15.60
2017,11,28,22,51,-15.60
2017,11,28,22,52,-15.60
2017,11,28,22,53,-15.60
2017,11,28,22,54,-15.60
2017,11,28,22,55,-15.60
2017,11,28,22,56,-15.60
2017,11,28,22,57,-15.60
2017,11,28,22,58,-15.60
2017,11,28,22,59,-15.60
2017,11,28,23,00,-15.60
2017,11,28,23,01,-15.60
2017,11,28,23,02,-15.60
2017,11,28,23,03,-15.60
2017,11,28,23,04,-15.60
2017,11,28,23,05,-15.60
2017,11,28,23,06,-15.60
2017,11,28,23,07,-15.60
2017,11,28,23,08,-15.60
2017,11,28,23,09,-15.60
2017,11,28,23,10,-15.60
2017,11,28,23,11,-15.60
2017,11,28,23,12,-15.60
2017,11,28,23,13,-15.60
2017,11,28,23,14,-15.60
2017,11,28,23,15,-15.60
2017,11,28,23,16,-15.60
2017,11,28,23,17,-15.60
2017,11,28,23,18,-15.60
2017,11,28,23,19,-15.60
2017,11,28,23,20,-15.60
2017,11,28,23,21,-15.60
2017,11,28,23,22,-15.60
2017,11,28,23,23,-15.60
2017,11,28,23,24,-15.60
2017,11,28,23,25,-15.60
2017,11,28,23,26,-15.60
2017,11,28,23,27,-15.60
2017,11,28,23,28,-15.60
2017,11,28,23,29,-15.60
2017,11,28,23,30,-15.60
2017,11,28,23,31,-15.60
2017,11,28,23,32,-15.60
2017,11,28,23,33,-15.60
2017,11,28,23,34,-15.60
2017,11,28,23,35,-15.60
2017,11,28,23,36,-15.60
2017,11,28,23,37,-15.60
2017,11,28,23,38,-15.60
2017,11,28,23,39,-15.60
2017,11,28,23,40,-15.60
2017,11,28,23,41,-15.60
2017,11,28,23,42,-15.60
2017,11,28,23,43,-15.60
2017,11,28,23,44,-15.60
2017,11,28,23,45,-15.60
2017,11,28,23,46,-15.60
2017,11,28,23,47,-15.60
2017,11,28,23,48,-15.60
2017,11,28,23,49,-15.50
2017,11,28,23,50,-15.40
2017,11,28,23,51,-15.30
2017,11,28,23,52,-15.40
2017,11,28,23,53,-15.30
2017,11,28,23,54,-15.30
2017,11,28,23,55,-15.30
2017,11,28,23,56,-15.30
2017,11,28,23,57,-15.30
2017,11,28,23,58,-15.30
2017,11,28,23,59,-15.30
